Гран При Германии: третья тренировка

Гран При Германии: третья тренировка

Еще в пятницу гонщики отмечали высокую температуру асфальта до 50 градусов. В субботу на трассе в Хокенхайме прохладней не стало.

Именно поэтому многие гонщики почти полчаса сидели в боксах, оставив основную программу тренировки на вторую часть сессии.

Тем не менее, ошибок меньше не стало. Практически каждый гонщик выезжал за пределы трассы. Особенно эффектным был разворот Фернандо Алонсо на Стадионе.

Без механических проблем также не обошлось. На Ferrari Райкконена пришлось заменить топливный насос, у Эриксона возникли проблемы с гидравликой, у Чилтона – с электроникой, у Сутила – с силовой установкой.

Первое время пилоты Williams занимали первые строчки, но в итоге вверху протокола вновь оказались гонщики Mercedes. Лучшее время показал Нико Росберг – 1:17.779.

 
Дата19 июля 2014Погодасолнечно
Киевское время12:00-13:00 ч.Температура29-30°C
Местное время11:00-12:00 ч.Влажность36-41%
Участники22Давление1.001 mBar
Рекорд в гонке1:13.780 мин.Асфальт44-48°C
Рекорд в квалификации1:13.306 мин.Ветер6,5 м/с, восточный

Результаты

Поз.ПилотКомандаВремяОтставаниеот пред.Круги
16N. RosbergMercedes1:17.779  24
244L. HamiltonMercedes1:18.380+0:00.601+0:00.60120
314F. AlonsoFerrari1:18.384+0:00.605+0:00.00411
419F. MassaWilliams1:18.575+0:00.796+0:00.19118
577V. BottasWilliams1:18.611+0:00.832+0:00.03619
620K. MagnussenMcLaren1:18.756+0:00.977+0:00.14516
73D. RicciardoRed Bull1:18.769+0:00.990+0:00.01313
87K. RäikkönenFerrari1:18.842+0:01.063+0:00.0738
91S. VettelRed Bull1:18.890+0:01.111+0:00.04817
1027N. HülkenbergForce India1:19.127+0:01.348+0:00.23719
1126D. KwjatToro Rosso1:19.131+0:01.352+0:00.00419
1225J. VergneToro Rosso1:19.470+0:01.691+0:00.33920
1322J. ButtonMcLaren1:19.489+0:01.710+0:00.01915
1411S. PerezForce India1:19.505+0:01.726+0:00.01621
1521E. GutierrezSauber1:19.601+0:01.822+0:00.09623
168R. GrosjeanLotus1:20.078+0:02.299+0:00.47723
1717J. BianchiMarussia1:20.198+0:02.419+0:00.12021
1813P. MaldonadoLotus1:20.466+0:02.687+0:00.26819
1999A. SutilSauber1:20.844+0:03.065+0:00.3786
2010K. KobayashiCaterham1:21.018+0:03.239+0:00.17421
219M. EricssonCaterham1:23.077+0:05.298+0:02.05914
 107 % барьер1:23.223 
224M. ChiltonMarussia1:23.449+0:05.670+0:00.3727
от пред. = от предыдущего
Написати коментар
Показати коментарі
Про цю статтю
Серія Формула 1
Тип статті Важливі новини